NOAA 16 DEB, 41398

Orbit data source: Space-Track

NOAA 16 DEB, 41398 is space debris in SSO originally from a launch on Thu, 21 Sep 2000 UTC launched from the Air Force Western Test Range (AFWTR). Debris objects in space refer to the collection of defunct objects orbiting the Earth. Examples of debris include non-operational satellites, rocket bodies, and fragments generated from explosions, collisions, or faulty payload assembly.

Loading next visibility...
Identifier
41398, 2000-055KB
Orbit
SSO
Country
Flag of USUS
Related business
Manufacturer
Unknown
Mission
Spacecraft
Bus & Motor
Unknown
Mass
Unknown
Launch date (UTC)
2000-09-21 (26 years ago)
Launch vehicle
Unknown
Launch site
Air Force Western Test Range (AFWTR)
Object type
Payload
Rocket body
Debris
Shape & HBR
Unknown shape, 0.1 m
Radar Cross Section
Small (<0.1 m²)

Expand to show TLE details & history
Last TLE update: 9 hours ago

TLE from 9 hours ago
0 NOAA 16 DEB
1 41398U 00055KB  26130.61208012  .00003235  00000-0  10776-2 0  9993
2 41398  98.8196 252.9703 0012109 333.4461  26.6104 14.38278970528859
Epoch: 2026-05-10T14:41Z
TLE epoch observation values (Epoch: 2026-05-10T14:41:23.722Z)
Latitude
0.00002°
Longitude
164.20879°
Altitude
759.394 km
Speed
7.479 km/s
True Right ascension
16h 51m 52s
True Declination
0° 00' 00"
Sunlit
Object was in full shadow at epoch
Visualization orbit readout
Latitude
Unknown
Longitude
Unknown
Altitude
Unknown
Speed
Unknown
Apparent Right ascension
Unknown
Apparent Declination
Unknown
Sunlit
N/A
Visualization observer readout
Local Sidereal Time
08:06:02
Azimuth
Unknown
Elevation
Unknown
Doppler factor
Unknown
Orbital elements
Apogee altitude
769.975 km
Perigee altitude
752.685 km
Semi-major axis
7,139.467 km
Eccentricity
0.00121
Inclination
98.8196°
RAAN
252.9703°
Arg. of periapsis
333.4461°
True anomaly
26.67264°
Mean anomaly
26.6104°
Eccentric anomaly
26.64151°
Mean motion
3.59786 °/min
Orbital period
100.06 mins
BSTAR
0.0010776
Loading maneuver chart data...
Computing Atmospheric mass density...
Loading historical data...
Loading historical data...
Loading historical data...
Loading historical data...
Loading historical data...
Loading historical data...
Loading historical data...

Documentation

Showing up to 5 results
|